Flag for Germany Weather past 2 weeks in Aschersleben, Saxony-Anhalt, Germany

Now
71 °F

Low clouds.


Feels Like: 70 °F
Forecast: 56 / 74 °F
Wind: 2 mph from Northwest

Location: Magdeburg

Current Time: Jul 30, 2014 at 1:25:25 PM

Latest Report: Jul 30, 2014 at 1:00 PM


Visibility: 14 mi

Pressure: 29.78 "Hg

Humidity: 85%

Dew point: 66 °F

Location of AscherslebenLocation

Historic Weather in Aschersleben — Graph

°F

Aschersleben temperature yesterday

Maximum temperature yesterday: 81 °F (at 6:00 PM)
Minimum temperature yesterday: 67 °F (at 6:00 AM)
Average temperature yesterday: 71 °F

Past Weeks' High & Low Weather Summary

 TemperatureHumidityPressure
High93 °F (Jul 20, 3:00 PM)98% (Jul 26, 6:00 AM)30.20 "Hg (Jul 26, 6:00 AM)
Low58 °F (Jul 17, 6:00 AM)20% (Jul 19, 6:00 PM)29.71 "Hg (Jul 30, 4:00 AM)
Average73 °F67%29.97 "Hg
* Reported Jul 15 12:00 Noon — Jul 30 12:00 Noon, Aschersleben, Weather by CustomWeather, © 2014

Note: Actual official high and low records may vary slightly from our data, if they occured in-between our weather recording intervals... More about our weather records

Advertising

Aschersleben weather history for previous 24 hours

 ConditionsComfort  
Time TempWeatherWind HumidityBarometerVisibility
12:00 PM
Jul 30
70 °FLow clouds.2 mph90%29.77 "Hg10 mi
11:00 AM68 °FLow clouds.2 mph93%29.76 "Hg6 mi
10:00 AM67 °FLight rain. Low clouds.2 mph95%29.75 "Hg2 mi
9:00 AM67 °FLight rain. Low clouds.2 mph96%29.74 "Hg2 mi
8:00 AM66 °FThundershowers. Low clouds.2 mph97%29.72 "Hg1 mi
7:00 AM66 °FLight rain. Low clouds.1 mph96%29.72 "Hg1 mi
6:00 AM67 °FFog.1 mph96%29.72 "Hg2 mi
4:00 AM67 °FFog.1 mph96%29.71 "Hg2 mi
3:00 AM67 °FFog.1 mph96%29.72 "Hg2 mi
2:00 AM67 °FLow clouds.2 mph96%29.72 "Hg3 mi
1:00 AM67 °FRain. Low clouds.2 mph96%29.74 "Hg1 mi
12:00 AM68 °FRain. Dense fog.3 mph95%29.74 "Hg1 mi
11:00 PM
Jul 29
67 °FLight rain. Overcast.1 mph93%29.74 "Hg5 mi
10:00 PM68 °FLight rain. Overcast.1 mph94%29.75 "Hg4 mi
9:00 PM68 °FLight rain. Overcast.1 mph94%29.74 "Hg3 mi
8:00 PM69 °FLight rain. Overcast.1 mph92%29.73 "Hg5 mi
7:00 PM77 °FOvercast.6 mph62%29.73 "Hg19 mi
6:00 PM81 °FPassing clouds.3 mph55%29.73 "Hg12 mi
4:00 PM79 °FScattered clouds.3 mph65%29.74 "Hg9 mi
3:00 PM76 °FPartly sunny.3 mph73%29.78 "Hg7 mi
2:00 PM74 °FOvercast.3 mph79%29.79 "Hg7 mi
1:00 PM76 °FLight rain. Overcast.2 mph73%29.80 "Hg7 mi
Weather by CustomWeather, © 2014

See weather overviewHow to use our weather pages